Weather History for KSPG - June, 2013

Change the Weather History Date:

Tuesday, June 11, 2013

  Actual Average Record
Temperature  
Mean Temperature 84 °F -  
Max Temperature 91 °F 90 °F 95 °F (1958)
Min Temperature 79 °F 75 °F 67 °F (1960)
Cooling Degree Days 18    
Growing Degree Days 34 (Base 50)    
Moisture  
Dew Point 75 °F    
Average Humidity 78    
Maximum Humidity 90    
Minimum Humidity 61    
Precipitation  
Precipitation 0.01 in - - ()
Sea Level Pressure  
Sea Level Pressure 30.05 in    
Wind  
Wind Speed 7 mph (East)    
Max Wind Speed 10 mph    
Max Gust Speed -    
Visibility 10 miles    
Events Rain , Thunderstorm    
Averages and records for this station are not official NWS values.
T = Trace of Precipitation, MM = Missing Value Source: NWS Daily Summary

Daily Weather History Graph

Daily Weather History Graph

Search for Another Location

Airport or City:

Trip Planner

Search our weather history database for the weather conditions in past years. The results will help you decide how hot, cold, wet, or windy it might be!

Date:

Astronomy

Jun. 11, 2013 Rise Set
Actual Time 6:34 AM EDT 8:26 PM EDT
Civil Twilight 6:07 AM EDT 8:53 PM EDT
Nautical Twilight 5:35 AM EDT 9:25 PM EDT
Astronomical Twilight 5:01 AM EDT 9:59 PM EDT
Moon 9:06 AM EDT (6/11) 10:41 PM EDT (6/11)
Length of Visible Light 14h 45m
Length of Day
13h 52m
Waxing Crescent, 8% of the Moon is Illuminated
Jun 11
Waxing Crescent
Jun 16
First Quarter
Jun 23
Full
Jun 30
Last Quarter
Jul 8
New

Hourly Weather History & Observations

Time (EDT) Temp. Heat Index Dew Point Humidity Pressure Visibility Wind Dir Wind Speed Gust Speed Precip Events Conditions
12:53 AM 81.0 °F 85.8 °F 73.0 °F 77% 30.06 in 10.0 mi East 9.2 mph - N/A   Clear
1:53 AM 81.0 °F 86.2 °F 73.9 °F 79% 30.06 in 10.0 mi East 8.1 mph - N/A   Partly Cloudy
2:53 AM 81.0 °F 87.3 °F 75.9 °F 85% 30.05 in 10.0 mi East 6.9 mph - N/A   Mostly Cloudy
3:53 AM 80.1 °F 85.4 °F 75.9 °F 87% 30.04 in 10.0 mi East 6.9 mph - N/A   Clear
4:53 AM 79.0 °F - 75.9 °F 90% 30.04 in 10.0 mi ESE 5.8 mph - N/A   Clear
5:53 AM 79.0 °F - 75.9 °F 90% 30.04 in 10.0 mi East 4.6 mph - N/A   Clear
6:53 AM 79.0 °F - 75.9 °F 90% 30.05 in 10.0 mi East 4.6 mph - N/A   Clear
7:53 AM 80.1 °F 85.4 °F 75.9 °F 87% 30.06 in 10.0 mi SSE 6.9 mph - N/A   Clear
8:53 AM 80.1 °F 85.8 °F 77.0 °F 90% 30.08 in 10.0 mi SSE 6.9 mph - N/A   Clear
9:53 AM 82.0 °F 90.2 °F 77.0 °F 85% 30.08 in 10.0 mi SSE 6.9 mph - N/A   Clear
10:53 AM 84.0 °F 93.7 °F 77.0 °F 79% 30.07 in 10.0 mi Calm Calm - N/A   Clear
11:53 AM 86.0 °F 96.9 °F 77.0 °F 74% 30.08 in 10.0 mi SE 5.8 mph - N/A   Clear
12:19 PM 84.9 °F 94.1 °F 75.9 °F 74% 30.08 in 10.0 mi East 3.5 mph - N/A Thunderstorm Thunderstorm
12:53 PM 84.9 °F 93.3 °F 75.0 °F 72% 30.08 in 10.0 mi Calm Calm - N/A Thunderstorm Thunderstorm
1:19 PM 81.0 °F 86.2 °F 73.9 °F 79% 30.07 in 10.0 mi NW 6.9 mph - 0.00 in Rain Light Rain
1:34 PM 81.0 °F 87.3 °F 75.9 °F 85% 30.07 in 10.0 mi NNW 6.9 mph - 0.00 in Rain , Thunderstorm Light Rain
1:53 PM 82.9 °F 89.4 °F 73.9 °F 74% 30.07 in 10.0 mi North 5.8 mph - 0.00 in Rain Light Rain
2:15 PM 86.0 °F 95.1 °F 75.0 °F 70% 30.06 in 10.0 mi North 8.1 mph - 0.00 in Thunderstorm Partly Cloudy
2:36 PM 88.0 °F 98.5 °F 75.9 °F 67% 30.07 in 10.0 mi NE 9.2 mph - 0.00 in   Scattered Clouds
2:53 PM 88.0 °F 95.6 °F 73.0 °F 61% 30.06 in 10.0 mi NNE 4.6 mph - 0.00 in   Mostly Cloudy
3:53 PM 86.0 °F 93.8 °F 73.9 °F 67% 30.04 in 10.0 mi SSE 6.9 mph - N/A   Clear
4:53 PM 84.9 °F 94.1 °F 75.9 °F 74% 30.02 in 10.0 mi East 5.8 mph - N/A   Clear
5:53 PM 84.9 °F 95.3 °F 77.0 °F 77% 30.03 in 10.0 mi ENE 10.4 mph - N/A   Partly Cloudy
6:53 PM 86.0 °F 99.3 °F 79.0 °F 79% 30.03 in 10.0 mi ENE 5.8 mph - 0.01 in Thunderstorm Mostly Cloudy
7:16 PM 84.9 °F 95.3 °F 77.0 °F 77% 30.03 in 10.0 mi East 5.8 mph - N/A   Partly Cloudy
7:53 PM 84.9 °F 94.1 °F 75.9 °F 74% 30.03 in 10.0 mi East 9.2 mph - N/A   Clear
8:53 PM 82.9 °F 90.2 °F 75.0 °F 77% 30.02 in 10.0 mi SSW 8.1 mph - N/A   Clear
9:53 PM 82.9 °F 88.8 °F 73.0 °F 72% 30.02 in 10.0 mi South 6.9 mph - N/A   Clear
10:53 PM 82.9 °F 88.8 °F 73.0 °F 72% 30.03 in 10.0 mi Calm Calm - N/A   Clear
11:53 PM 82.0 °F 86.7 °F 72.0 °F 71% 30.05 in 10.0 mi ESE 8.1 mph - N/A   Clear